Sturgis, MI

12:12 PM EST on February 19, 2017 (GMT -0500)
Kirsch Municipal

Weather History for KIRS - March, 2013

Change the Weather History Date:

Monday, March 25, 2013

  Actual Average (KHAI) Record (KHAI)
Temperature  
Mean Temperature 32 °F -  
Max Temperature 35 °F 47 °F 78 °F (2007)
Min Temperature 28 °F 27 °F 1 °F (2006)
Degree Days  
Heating Degree Days 34    
Moisture  
Dew Point 25 °F    
Average Humidity 76    
Maximum Humidity 93    
Minimum Humidity 65    
Precipitation  
Precipitation 0.00 in - - ()
Sea Level Pressure  
Sea Level Pressure 29.70 in    
Wind  
Wind Speed 13 mph (North)    
Max Wind Speed 20 mph    
Max Gust Speed 28 mph    
Visibility 8 miles    
Events Snow    
Averages and records for this station are not official NWS values.
T = Trace of Precipitation, MM = Missing Value Source: NWS Daily Summary

Daily Weather History Graph

Daily Weather History Graph

Search for Another Location

Airport or City:

Trip Planner

Search our weather history database for the weather conditions in past years. The results will help you decide how hot, cold, wet, or windy it might be!

Date:

Astronomy

Mar. 25, 2013 Rise Set
Actual Time 7:36 AM EDT 7:59 PM EDT
Civil Twilight 7:08 AM EDT 8:27 PM EDT
Nautical Twilight 6:35 AM EDT 9:00 PM EDT
Astronomical Twilight 6:01 AM EDT 9:34 PM EDT
Moon 6:29 PM EDT (3/25) 6:20 AM EDT (3/25)
Length of Visible Light 13h 19m
Length of Day
12h 23m
Waxing Gibbous, 96% of the Moon is Illuminated
Mar 25
Waxing Gibbous
Mar 27
Full
Apr 3
Last Quarter
Apr 10
New
Apr 18
First Quarter

Hourly Weather History & Observations

Time (EDT) Temp. Windchill Dew Point Humidity Pressure Visibility Wind Dir Wind Speed Gust Speed Precip Events Conditions
12:15 AM 30.2 °F 19.8 °F 21.2 °F 69% 29.60 in 10.0 mi NE 13.8 mph 23.0 mph N/A   Overcast
12:34 AM 30.2 °F 18.1 °F 21.2 °F 69% 29.59 in 10.0 mi NNE 18.4 mph 26.5 mph N/A   Overcast
12:55 AM 30.2 °F 19.8 °F 21.2 °F 69% 29.59 in 7.0 mi NE 13.8 mph 24.2 mph N/A Snow Light Snow
1:14 AM 30.2 °F 18.9 °F 21.2 °F 69% 29.59 in 7.0 mi NE 16.1 mph 23.0 mph N/A Snow Light Snow
1:35 AM 28.4 °F 15.8 °F 23.0 °F 80% 29.58 in 7.0 mi NE 18.4 mph 24.2 mph N/A Snow Light Snow
1:54 AM 28.4 °F 15.4 °F 23.0 °F 80% 29.58 in 5.0 mi NE 19.6 mph 25.3 mph N/A Snow Light Snow
2:15 AM 28.4 °F 19.1 °F 24.8 °F 86% 29.58 in 2.5 mi NNE 10.4 mph 21.9 mph N/A Snow Light Snow
2:34 AM 28.4 °F 19.7 °F 24.8 °F 86% 29.57 in 1.8 mi NNE 9.2 mph 20.7 mph N/A Snow Light Snow
2:55 AM 28.4 °F 18.0 °F 26.6 °F 93% 29.57 in 1.5 mi NNE 12.7 mph 17.3 mph N/A Snow Light Snow
3:15 AM 28.4 °F 19.1 °F 26.6 °F 93% 29.57 in 2.0 mi NNE 10.4 mph 21.9 mph N/A Snow Light Snow
3:34 AM 28.4 °F 19.1 °F 26.6 °F 93% 29.57 in 2.0 mi NNE 10.4 mph 17.3 mph N/A Snow Light Snow
3:55 AM 28.4 °F 19.1 °F 26.6 °F 93% 29.56 in 2.0 mi NNE 10.4 mph 18.4 mph N/A Snow Light Snow
4:15 AM 28.4 °F 18.0 °F 24.8 °F 86% 29.56 in 4.0 mi NNE 12.7 mph 18.4 mph N/A Snow Light Snow
4:34 AM 28.4 °F 17.5 °F 24.8 °F 86% 29.55 in 5.0 mi NNE 13.8 mph 19.6 mph N/A Snow Light Snow
4:55 AM 28.4 °F 18.5 °F 24.8 °F 86% 29.55 in 2.5 mi NNE 11.5 mph - N/A Snow Light Snow
5:15 AM 28.4 °F 18.0 °F 26.6 °F 93% 29.55 in 5.0 mi NNE 12.7 mph 16.1 mph N/A Snow Light Snow
5:34 AM 28.4 °F 19.1 °F 26.6 °F 93% 29.55 in 3.0 mi North 10.4 mph - N/A Snow Light Snow
5:55 AM 28.4 °F 19.1 °F 26.6 °F 93% 29.56 in 5.0 mi NNE 10.4 mph 17.3 mph N/A Snow Light Snow
6:14 AM 28.4 °F 19.7 °F 26.6 °F 93% 29.56 in 3.0 mi North 9.2 mph - N/A Snow Light Snow
6:35 AM 28.4 °F 20.4 °F 26.6 °F 93% 29.56 in 4.0 mi NNE 8.1 mph - N/A Snow Light Snow
6:55 AM 30.2 °F 21.9 °F 24.8 °F 80% 29.56 in 10.0 mi NNE 9.2 mph - N/A   Overcast
7:14 AM 30.2 °F 21.3 °F 24.8 °F 80% 29.57 in 10.0 mi NNE 10.4 mph 18.4 mph N/A   Overcast
7:35 AM 30.2 °F 20.2 °F 24.8 °F 80% 29.58 in 10.0 mi NNE 12.7 mph 18.4 mph N/A   Overcast
7:54 AM 30.2 °F 21.3 °F 24.8 °F 80% 29.59 in 4.0 mi NNE 10.4 mph 16.1 mph N/A Snow Light Snow
8:14 AM 30.2 °F 20.8 °F 26.6 °F 86% 29.59 in 5.0 mi North 11.5 mph 17.3 mph N/A Snow Light Snow
8:35 AM 30.2 °F 21.3 °F 24.8 °F 80% 29.60 in 10.0 mi NNE 10.4 mph 17.3 mph N/A   Overcast
8:55 AM 30.2 °F 20.8 °F 24.8 °F 80% 29.61 in 10.0 mi North 11.5 mph 19.6 mph N/A   Overcast
9:15 AM 30.2 °F 21.3 °F 24.8 °F 80% 29.61 in 10.0 mi NNE 10.4 mph 16.1 mph N/A   Overcast
9:55 AM 32.0 °F 23.6 °F 24.8 °F 75% 29.62 in 10.0 mi NNE 10.4 mph - N/A   Overcast
10:15 AM 32.0 °F 20.8 °F 24.8 °F 75% 29.63 in 10.0 mi NNE 17.3 mph 24.2 mph N/A   Overcast
10:35 AM 32.0 °F 22.1 °F 24.8 °F 75% 29.64 in 10.0 mi NNE 13.8 mph 25.3 mph N/A   Overcast
10:55 AM 32.0 °F 24.2 °F 24.8 °F 75% 29.65 in 10.0 mi NNE 9.2 mph 20.7 mph N/A   Overcast
11:15 AM 33.8 °F 23.5 °F 24.8 °F 70% 29.65 in 10.0 mi NNE 16.1 mph 24.2 mph N/A   Overcast
11:35 AM 33.8 °F 23.5 °F 24.8 °F 70% 29.66 in 10.0 mi NNE 16.1 mph 21.9 mph N/A   Overcast
11:55 AM 33.8 °F 23.9 °F 24.8 °F 70% 29.66 in 10.0 mi NNE 15.0 mph 21.9 mph N/A   Overcast
12:15 PM 33.8 °F 25.3 °F 24.8 °F 70% 29.67 in 10.0 mi North 11.5 mph 21.9 mph N/A   Overcast
12:35 PM 33.8 °F 24.8 °F 24.8 °F 70% 29.68 in 10.0 mi NNE 12.7 mph 21.9 mph N/A   Overcast
1:15 PM 35.6 °F 28.0 °F 24.8 °F 65% 29.69 in 10.0 mi NNE 10.4 mph 19.6 mph N/A   Overcast
1:35 PM 35.6 °F 27.1 °F 24.8 °F 65% 29.70 in 10.0 mi NNE 12.7 mph 23.0 mph N/A   Overcast
1:55 PM 35.6 °F 27.1 °F 24.8 °F 65% 29.71 in 10.0 mi North 12.7 mph 27.6 mph N/A   Overcast
2:15 PM 35.6 °F 27.5 °F 24.8 °F 65% 29.72 in 10.0 mi North 11.5 mph 21.9 mph N/A   Overcast
2:35 PM 35.6 °F 26.6 °F 24.8 °F 65% 29.72 in 10.0 mi North 13.8 mph 24.2 mph N/A   Overcast
2:55 PM 35.6 °F 25.9 °F 24.8 °F 65% 29.72 in 10.0 mi North 16.1 mph 23.0 mph N/A   Overcast
3:15 PM 35.6 °F 27.1 °F 24.8 °F 65% 29.73 in 10.0 mi North 12.7 mph 17.3 mph N/A   Overcast
3:35 PM 35.6 °F 27.1 °F 24.8 °F 65% 29.74 in 10.0 mi North 12.7 mph 20.7 mph N/A   Overcast
3:55 PM 35.6 °F 26.2 °F 24.8 °F 65% 29.74 in 10.0 mi North 15.0 mph 21.9 mph N/A   Overcast
4:15 PM 35.6 °F 26.2 °F 24.8 °F 65% 29.75 in 10.0 mi North 15.0 mph 23.0 mph N/A   Overcast
4:35 PM 35.6 °F 25.9 °F 26.6 °F 70% 29.76 in 10.0 mi North 16.1 mph 21.9 mph N/A   Overcast
4:55 PM 35.6 °F 26.6 °F 26.6 °F 70% 29.77 in 10.0 mi North 13.8 mph 19.6 mph N/A   Overcast
5:15 PM 35.6 °F 28.0 °F 26.6 °F 70% 29.78 in 10.0 mi North 10.4 mph - N/A   Overcast
5:35 PM 35.6 °F 25.2 °F 24.8 °F 65% 29.78 in 10.0 mi North 18.4 mph 23.0 mph N/A   Overcast
5:55 PM 35.6 °F 26.2 °F 26.6 °F 70% 29.80 in 10.0 mi North 15.0 mph 20.7 mph N/A   Overcast
6:15 PM 35.6 °F 28.0 °F 26.6 °F 70% 29.80 in 10.0 mi North 10.4 mph 18.4 mph N/A   Overcast
6:35 PM 35.6 °F 29.2 °F 26.6 °F 70% 29.81 in 10.0 mi NNW 8.1 mph - N/A   Overcast
6:55 PM 35.6 °F 29.2 °F 26.6 °F 70% 29.82 in 10.0 mi NNW 8.1 mph - N/A   Overcast
7:15 PM 35.6 °F 27.5 °F 26.6 °F 70% 29.84 in 10.0 mi NNW 11.5 mph 17.3 mph N/A   Overcast
7:35 PM 35.6 °F 29.2 °F 26.6 °F 70% 29.85 in 10.0 mi North 8.1 mph - N/A   Overcast
7:55 PM 33.8 °F 26.4 °F 26.6 °F 75% 29.86 in 10.0 mi NNW 9.2 mph - N/A   Overcast
8:15 PM 33.8 °F 26.4 °F 26.6 °F 75% 29.87 in 10.0 mi NNW 9.2 mph - N/A   Overcast
8:35 PM 33.8 °F 27.7 °F 26.6 °F 75% 29.88 in 10.0 mi NNW 6.9 mph - N/A   Overcast
8:55 PM 33.8 °F 28.6 °F 26.6 °F 75% 29.89 in 10.0 mi NW 5.8 mph - N/A   Overcast
9:15 PM 33.8 °F 27.7 °F 26.6 °F 75% 29.89 in 10.0 mi NW 6.9 mph - N/A   Overcast
9:35 PM 33.8 °F 27.7 °F 26.6 °F 75% 29.91 in 10.0 mi NNW 6.9 mph - N/A   Overcast
9:55 PM 33.8 °F 27.7 °F 26.6 °F 75% 29.91 in 10.0 mi NNW 6.9 mph - N/A   Overcast
10:15 PM 33.8 °F 27.7 °F 26.6 °F 75% 29.92 in 10.0 mi NW 6.9 mph - N/A   Overcast
10:35 PM 33.8 °F 27.7 °F 26.6 °F 75% 29.93 in 10.0 mi NW 6.9 mph - N/A   Overcast
10:55 PM 33.8 °F 27.0 °F 26.6 °F 75% 29.94 in 10.0 mi NNW 8.1 mph - N/A   Overcast
11:15 PM 33.8 °F 26.4 °F 26.6 °F 75% 29.94 in 10.0 mi NNW 9.2 mph - N/A   Overcast
11:35 PM 33.8 °F 27.7 °F 26.6 °F 75% 29.95 in 10.0 mi NNW 6.9 mph - N/A   Overcast
11:55 PM 33.8 °F 26.4 °F 26.6 °F 75% 29.95 in 10.0 mi NNW 9.2 mph - N/A   Overcast